User: anonymous   Login
Location: Seminole
(32.7190°N, 102.6440°W)
Time: 02:09:22
(UTC-06:00)
Language:

Meteor 2-10 - Orbit

View from above orbital plane
View from above orbital plane
View from above satellite
View from above satellite

Ground track
Ground track

The orbit data is extracted from the following two-line orbital elements,

1 14452U 83109A   16338.84192229  .00000070  00000-0  23137-4 0  9992
2 14452  81.1628 273.4817 0090062 227.3638 131.9926 14.26417570721170
Epoch (UTC): 03 December 2016 20:12:22
Eccentricity: 0.0090062
inclination: 81.1628°
perigee height: 739 km
apogee height: 868 km
right ascension of ascending node: 273.4817°
argument of perigee: 227.3638°
revolutions per day: 14.26417570
mean anomaly at epoch: 131.9926°
orbit number at epoch: 72117

The dashed part of the orbit path shows where the satellite is in the earth's shadow,  

DLR